Location: Knowlton
(51.2333°N, 1.2667°E)
Time: 04:36:54
(UTC+00:00)

HuskySat-1 - Visible Passes

Search period start: 05 December 2021 00:00
Search period end: 15 December 2021 00:00
Orbit: 443 x 456 km, 51.6° (Epoch: 04 December)

Date Brightness Start Highest point End Pass type
(mag) Time Alt. Az. Time Alt. Az. Time Alt. Az.
05 Dec ? 16:26:09 10° S 16:28:34 17° SE 16:30:59 10° E visible
05 Dec ? 18:02:00 10° WSW 18:05:32 59° SSE 18:05:34 59° SSE visible
06 Dec ? 17:24:14 10° SW 17:27:43 50° SSE 17:29:16 28° E visible
06 Dec ? 19:01:33 10° W 19:02:50 21° W 19:02:50 21° W visible
07 Dec ? 16:46:29 10° SW 16:49:53 42° SSE 16:52:55 12° E visible
07 Dec ? 18:23:39 10° W 18:26:29 53° W 18:26:29 53° W visible
08 Dec ? 17:45:45 10° W 17:49:20 89° S 17:50:06 53° E visible
08 Dec ? 19:23:17 10° W 19:23:41 13° W 19:23:41 13° W visible
09 Dec ? 17:07:50 10° WSW 17:11:26 82° SSE 17:13:43 21° E visible
09 Dec ? 18:45:23 10° W 18:47:17 29° W 18:47:17 29° W visible
10 Dec ? 16:29:56 10° WSW 16:33:30 74° SSE 16:37:05 10° E visible
10 Dec ? 18:07:26 10° W 18:10:53 80° NW 18:10:53 80° NW visible
11 Dec ? 17:29:28 10° W 17:33:04 82° N 17:34:30 34° E visible
11 Dec ? 19:06:59 10° W 19:08:04 18° W 19:08:04 18° W visible
12 Dec ? 16:51:30 10° W 16:55:05 82° N 16:58:07 14° E visible
12 Dec ? 18:29:01 10° W 18:31:42 46° W 18:31:42 46° W visible
13 Dec ? 17:51:02 10° W 17:54:37 77° SSW 17:55:23 52° ESE visible
13 Dec ? 19:28:44 10° W 19:28:58 11° W 19:28:58 11° W visible
14 Dec ? 17:13:01 10° W 17:16:37 85° SSW 17:19:08 19° ESE visible
14 Dec ? 18:50:39 10° W 18:52:43 25° WSW 18:52:43 25° WSW visible
